BM2MWA-13 Weather Reports


time (UTC)temp
C
wind
direction
speed
KPH
gust
KPH
rain 1hr
cm
rain 24hr
cm
rain mn
cm
humidity
%
barometer
mb
20260508070703 23 110 9.7 33.8 0.00 0.25 0.00 82 1010.5
20260508065704 23 100 9.7 33.8 0.00 0.25 0.00 83 1010.5
20260508064703 23 90 11.3 33.8 0.00 0.25 0.00 82 1010.4
20260508063703 23 90 11.3 33.8 0.00 0.25 0.00 82 1010.4
20260508062703 23 100 9.7 33.8 0.00 0.25 0.00 80 1010.4
20260508061704 23 100 14.5 33.8 0.00 0.25 0.00 80 1010.4
20260508060704 23 110 12.9 35.4 0.00 0.25 0.00 80 1010.6
20260508055704 23 70 8.0 35.4 0.00 0.25 0.00 79 1010.7
20260508054705 23 70 9.7 35.4 0.00 0.25 0.00 79 1010.8
20260508053703 24 70 9.7 35.4 0.00 0.25 0.00 78 1010.9
20260508052703 24 60 9.7 35.4 0.00 0.25 0.00 77 1010.9
20260508051704 24 80 8.0 35.4 0.00 0.25 0.00 76 1011.0
20260508050704 25 110 12.9 35.4 0.00 0.25 0.00 75 1010.8
20260508045703 25 100 14.5 35.4 0.00 0.25 0.00 75 1010.9
20260508044703 25 100 9.7 35.4 0.00 0.25 0.00 74 1010.9
20260508043704 25 100 12.9 35.4 0.00 0.25 0.00 75 1011.1
20260508042704 25 110 11.3 35.4 0.00 0.25 0.00 76 1011.2
20260508041703 25 100 9.7 35.4 0.00 0.25 0.00 76 1011.2
20260508040703 24 100 12.9 40.2 0.00 0.25 0.00 77 1011.3
20260508035703 24 100 12.9 40.2 0.00 0.25 0.00 78 1011.3
20260508034704 24 100 12.9 40.2 0.00 0.25 0.00 79 1011.4
20260508033704 24 100 12.9 40.2 0.00 0.25 0.00 80 1011.6
20260508032704 24 100 14.5 40.2 0.00 0.25 0.00 80 1011.5
20260508031703 23 100 14.5 40.2 0.00 0.25 0.00 81 1011.5
20260508030703 23 100 16.1 24.1 0.00 0.25 0.00 81 1011.5
20260508025703 24 100 14.5 24.1 0.00 0.25 0.00 81 1011.3
20260508024703 24 100 14.5 24.1 0.00 0.25 0.00 81 1011.3
20260508023703 25 90 11.3 24.1 0.00 0.25 0.00 80 1011.3
20260508022705 25 100 11.3 24.1 0.00 0.25 0.00 78 1011.3
20260508021703 26 110 8.0 24.1 0.00 0.25 0.00 79 1011.2
20260508020703 26 100 6.4 9.7 0.00 0.25 0.00 78 1011.1
20260508015704 26 130 4.8 9.7 0.00 0.25 0.00 78 1011.1
20260508014704 26 220 3.2 9.7 0.00 0.25 0.00 77 1011.0
20260508013703 26 230 4.8 9.7 0.00 0.25 0.00 77 1011.0
20260508012704 26 170 3.2 9.7 0.00 0.25 0.00 77 1011.0
20260508011703 26 170 4.8 9.7 0.00 0.25 0.00 76 1011.0
20260508010703 26 220 1.6 8.0 0.00 0.25 0.00 78 1011.0
20260508005703 26 140 3.2 8.0 0.00 0.25 0.00 77 1010.8
20260508004703 26 140 3.2 8.0 0.00 0.25 0.00 78 1010.8
20260508003703 26 140 3.2 8.0 0.00 0.25 0.00 78 1010.7
20260508002703 25 100 1.6 8.0 0.00 0.25 0.00 78 1010.6
20260508001703 25 100 3.2 8.0 0.00 0.25 0.00 80 1010.6
20260508000703 25 130 3.2 11.3 0.00 0.25 0.00 79 1010.4
20260507235703 25 130 4.8 11.3 0.00 0.25 0.00 80 1010.4
20260507234703 25 120 3.2 11.3 0.00 0.25 0.00 80 1010.4
20260507233703 25 140 3.2 11.3 0.00 0.25 0.00 80 1010.4
20260507232703 24 160 3.2 11.3 0.00 0.25 0.00 82 1010.3
20260507231703 24 170 3.2 11.3 0.00 0.25 0.00 83 1010.3
20260507230703 23 190 3.2 11.3 0.00 0.25 0.00 82 1010.2
20260507225703 23 220 3.2 11.3 0.00 0.25 0.00 84 1010.2
20260507224703 23 230 3.2 11.3 0.00 0.25 0.00 83 1010.0
20260507223703 23 200 3.2 11.3 0.00 0.25 0.00 83 1009.8
20260507222703 23 170 6.4 11.3 0.00 0.25 0.00 83 1009.7
20260507221703 23 180 6.4 11.3 0.00 0.25 0.00 83 1009.6
20260507220703 23 180 4.8 9.7 0.00 0.25 0.00 83 1009.5
20260507215705 23 170 1.6 9.7 0.00 0.25 0.00 83 1009.4
20260507214704 23 170 3.2 9.7 0.00 0.25 0.00 84 1009.3
20260507213703 23 170 3.2 9.7 0.00 0.25 0.00 84 1009.2
20260507212704 23 150 4.8 9.7 0.00 0.25 0.00 83 1009.1
20260507211703 23 180 4.8 9.7 0.00 0.25 0.00 84 1009.2
20260507210703 23 180 3.2 9.7 0.00 0.25 0.00 85 1009.2
20260507205704 23 180 1.6 9.7 0.00 0.25 0.00 86 1009.0
20260507204704 23 170 3.2 9.7 0.00 0.25 0.00 86 1008.9
20260507203703 23 150 3.2 9.7 0.00 0.25 0.00 85 1008.7
20260507202705 23 150 4.8 9.7 0.00 0.25 0.00 86 1008.6
20260507201703 23 170 3.2 9.7 0.00 0.25 0.00 87 1008.5
20260507200703 23 180 4.8 9.7 0.00 0.25 0.00 85 1008.4
20260507195704 23 170 4.8 9.7 0.00 0.25 0.00 85 1008.3
20260507194703 23 180 6.4 9.7 0.00 0.25 0.00 87 1008.3
20260507193703 23 170 3.2 9.7 0.00 0.25 0.00 88 1008.3
20260507192704 23 180 4.8 9.7 0.00 0.25 0.00 88 1008.2
20260507191703 23 180 4.8 9.7 0.00 0.25 0.00 88 1008.1
20260507190703 23 180 3.2 11.3 0.00 0.25 0.00 89 1008.2
20260507185703 23 180 3.2 11.3 0.00 0.25 0.00 87 1008.2
20260507184703 23 170 4.8 11.3 0.00 0.25 0.00 86 1008.1
20260507183703 23 150 3.2 11.3 0.00 0.25 0.00 86 1008.2
20260507182703 23 190 3.2 11.3 0.00 0.25 0.00 84 1008.1
20260507181703 23 170 4.8 11.3 0.00 0.25 0.00 85 1008.2
20260507180703 23 170 1.6 11.3 0.00 0.25 0.00 88 1008.0
20260507175704 23 220 3.2 11.3 0.00 0.25 0.00 87 1008.0
20260507174704 24 200 1.6 11.3 0.00 0.25 0.00 87 1007.9
20260507173703 24 180 6.4 11.3 0.00 0.25 0.00 86 1007.9
20260507172703 24 180 4.8 11.3 0.00 0.25 0.00 87 1007.9
20260507171704 24 180 6.4 11.3 0.00 0.25 0.00 86 1007.9
20260507170705 24 180 6.4 9.7 0.00 0.25 0.00 86 1008.0
20260507165703 24 180 6.4 9.7 0.00 0.25 0.00 84 1008.1
20260507164704 25 200 4.8 9.7 0.00 0.25 0.00 85 1008.2
20260507163703 25 190 1.6 9.7 0.00 0.25 0.00 84 1008.3
20260507162703 25 190 1.6 9.7 0.00 0.25 0.00 84 1008.3
20260507161703 25 170 3.2 9.7 0.00 0.25 0.00 84 1008.5
20260507160703 25 170 4.8 11.3 0.00 0.25 0.25 85 1008.6
20260507155703 25 150 3.2 11.3 0.00 0.25 0.25 85 1008.6
20260507154703 25 180 3.2 11.3 0.00 0.25 0.25 84 1008.8
20260507153703 25 180 3.2 11.3 0.00 0.25 0.25 85 1008.8
20260507152704 25 170 1.6 11.3 0.00 0.25 0.25 86 1008.8
20260507151703 25 160 3.2 11.3 0.00 0.25 0.25 83 1008.9
20260507150703 25 180 1.6 11.3 0.00 0.25 0.25 83 1009.0
20260507145705 25 170 1.6 11.3 0.00 0.25 0.25 82 1009.0
20260507144704 25 160 4.8 11.3 0.00 0.25 0.25 83 1009.1
20260507143704 25 180 6.4 11.3 0.00 0.25 0.25 83 1009.1
20260507142705 25 190 6.4 11.3 0.00 0.25 0.25 83 1009.0
20260507141704 25 180 6.4 11.3 0.00 0.25 0.25 83 1008.9
20260507140703 25 180 4.8 11.3 0.00 0.25 0.25 84 1008.9
20260507135703 25 150 4.8 11.3 0.00 0.25 0.25 84 1008.9
20260507134703 25 150 3.2 11.3 0.00 0.25 0.25 82 1008.9
20260507133703 25 150 4.8 11.3 0.00 0.25 0.25 83 1008.9
20260507132704 25 140 4.8 11.3 0.00 0.25 0.25 84 1008.8
20260507131703 25 180 4.8 11.3 0.00 0.25 0.25 83 1008.7
20260507130703 25 180 6.4 11.3 0.00 0.25 0.25 83 1008.7
20260507125703 25 170 1.6 11.3 0.00 0.25 0.25 85 1008.6
20260507124704 25 140 1.6 11.3 0.00 0.25 0.25 85 1008.5
20260507123703 25 160 3.2 11.3 0.00 0.25 0.25 85 1008.5
20260507122705 25 150 3.2 11.3 0.00 0.25 0.25 83 1008.5
20260507121704 25 170 4.8 11.3 0.00 0.25 0.25 84 1008.4
20260507120703 25 180 4.8 8.0 0.00 0.25 0.25 83 1008.3
20260507115703 25 170 6.4 8.0 0.00 0.25 0.25 83 1008.2
20260507114703 26 160 6.4 8.0 0.00 0.25 0.25 82 1008.1
20260507113703 26 180 8.0 8.0 0.00 0.25 0.25 83 1008.0
20260507112707 26 190 4.8 8.0 0.00 0.25 0.25 84 1007.9
20260507111703 26 220 3.2 8.0 0.00 0.25 0.25 85 1007.8
20260507110703 26 210 1.6 11.3 0.00 0.25 0.25 86 1007.8
20260507105704 26 190 3.2 11.3 0.00 0.25 0.25 86 1007.7
20260507104703 26 130 3.2 11.3 0.00 0.25 0.25 84 1007.6
20260507103704 26 150 4.8 11.3 0.00 0.25 0.25 85 1007.6
20260507102704 26 140 4.8 11.3 0.00 0.25 0.25 84 1007.5
20260507101703 26 150 4.8 11.3 0.00 0.25 0.25 85 1007.4
20260507100703 26 80 1.6 17.7 0.00 0.25 0.25 86 1007.3
20260507095704 25 250 1.6 17.7 0.00 0.25 0.25 88 1007.3
20260507094703 26 280 3.2 17.7 0.00 0.25 0.25 85 1007.2
20260507093704 26 0 0.0 17.7 0.00 0.25 0.25 87 1007.1
20260507092704 25 320 3.2 17.7 0.00 0.25 0.25 87 1006.9
20260507091704 25 30 3.2 17.7 0.25 0.25 0.25 92 1006.8
20260507090703 25 60 4.8 19.3 0.25 0.25 0.25 89 1006.7
20260507085704 25 70 4.8 19.3 0.25 0.25 0.25 89 1006.7
20260507084703 25 40 6.4 19.3 0.25 0.25 0.25 90 1006.6
20260507083703 26 0 6.4 19.3 0.25 0.25 0.25 89 1006.5
20260507082703 27 0 6.4 19.3 0.25 0.25 0.25 76 1006.5
20260507081704 27 350 8.0 19.3 0.00 0.00 0.00 74 1006.4
20260507080703 28 340 9.7 17.7 0.00 0.00 0.00 72 1006.3
20260507075703 28 340 4.8 17.7 0.00 0.00 0.00 68 1006.3
20260507074703 28 80 6.4 17.7 0.00 0.00 0.00 67 1006.3
20260507073703 28 100 6.4 17.7 0.00 0.00 0.00 67 1006.2
20260507072703 28 110 6.4 17.7 0.00 0.00 0.00 67 1006.2
20260507071703 29 70 4.8 17.7 0.00 0.00 0.00 66 1006.3